EW6000 Weather Reports


Display with metric or nautical units.
time (UTC)temp
F
wind
direction
speed
MPH
gust
MPH
rain 1hr
in
rain 24hr
in
rain mn
in
humidity
%
barometer
mb
20260507113959 38 242 3.0 7.0 0.00 0.00 0.00 80 1011.6
20260507113000 38 242 2.0 8.0 0.00 0.00 0.00 80 1011.6
20260507112459 38 240 3.0 8.0 0.00 0.00 0.00 80 1011.7
20260507112000 38 245 3.0 7.0 0.00 0.00 0.00 79 1011.7
20260507111000 38 263 3.0 8.0 0.00 0.00 0.00 79 1011.7
20260507110500 38 254 3.0 10.0 0.00 0.00 0.00 79 1011.7
20260507105959 38 246 3.0 10.0 0.00 0.00 0.00 79 1011.8
20260507105500 38 247 4.0 9.0 0.00 0.00 0.00 79 1011.8
20260507104500 39 233 5.0 12.0 0.00 0.00 0.00 78 1011.9
20260507104000 39 236 5.0 11.0 0.00 0.00 0.00 78 1012.1
20260507103501 39 239 5.0 11.0 0.00 0.00 0.00 78 1012.1
20260507103000 39 232 5.0 11.0 0.00 0.00 0.00 78 1012.1
20260507102459 39 227 4.0 10.0 0.00 0.00 0.00 78 1012.1
20260507101500 39 232 5.0 14.0 0.00 0.00 0.00 77 1012.3
20260507101000 40 238 6.0 14.0 0.00 0.00 0.00 77 1012.3
20260507100459 40 243 6.0 12.0 0.00 0.00 0.00 76 1012.4
20260507095959 40 249 6.0 11.0 0.00 0.00 0.00 76 1012.4
20260507095500 40 248 6.0 11.0 0.00 0.00 0.00 75 1012.5
20260507094500 40 249 4.0 11.0 0.00 0.00 0.00 75 1012.5
20260507093959 40 239 5.0 11.0 0.00 0.00 0.00 75 1012.7
20260507093500 40 233 6.0 13.0 0.00 0.00 0.00 74 1012.7
20260507093000 41 230 6.0 14.0 0.00 0.00 0.00 74 1012.7
20260507092500 41 223 6.0 14.0 0.00 0.00 0.00 74 1012.7
20260507092000 41 224 6.0 12.0 0.00 0.00 0.00 74 1012.8
20260507091459 41 229 5.0 11.0 0.00 0.00 0.00 74 1012.9
20260507091000 41 228 5.0 10.0 0.00 0.00 0.00 74 1012.9
20260507090500 41 222 4.0 10.0 0.00 0.00 0.00 74 1012.9
20260507085500 41 233 5.0 10.0 0.00 0.00 0.00 74 1013.2
20260507084500 41 233 4.0 11.0 0.00 0.00 0.00 75 1013.4
20260507083000 41 241 5.0 11.0 0.00 0.00 0.00 75 1013.5
20260507082459 41 233 5.0 11.0 0.00 0.00 0.00 75 1013.6
20260507082001 41 227 4.0 9.0 0.00 0.00 0.00 76 1013.7
20260507081500 41 235 4.0 11.0 0.00 0.00 0.00 76 1013.7
20260507080959 41 236 5.0 14.0 0.00 0.00 0.00 76 1013.7
20260507080500 41 233 5.0 14.0 0.00 0.00 0.00 76 1013.9
20260507075500 41 222 6.0 11.0 0.00 0.00 0.00 76 1014.0
20260507075000 42 225 5.0 11.0 0.00 0.00 0.00 76 1014.1
20260507074500 42 228 5.0 13.0 0.00 0.00 0.00 76 1014.1
20260507073959 42 225 6.0 13.0 0.00 0.00 0.00 76 1014.2
20260507073500 42 216 6.0 13.0 0.00 0.00 0.00 76 1014.4
20260507072959 42 216 6.0 13.0 0.00 0.00 0.00 76 1014.4
20260507072500 42 221 5.0 11.0 0.00 0.00 0.00 76 1014.4
20260507072000 42 221 5.0 11.0 0.00 0.00 0.00 76 1014.3
20260507071500 42 221 6.0 13.0 0.00 0.00 0.00 76 1014.4
20260507071000 42 219 7.0 13.0 0.00 0.00 0.00 76 1014.4
20260507065500 42 211 7.0 16.0 0.00 0.00 0.00 76 1014.4
20260507065000 42 213 7.0 13.0 0.00 0.00 0.00 76 1014.4
20260507064459 43 218 8.0 15.0 0.00 0.00 0.00 76 1014.5
20260507064000 43 215 9.0 16.0 0.00 0.00 0.00 75 1014.5
20260507063500 43 214 9.0 17.0 0.00 0.00 0.00 75 1014.6
20260507063000 43 214 8.0 17.0 0.00 0.00 0.00 75 1014.5
20260507062500 43 214 9.0 17.0 0.00 0.00 0.00 75 1014.6
20260507061500 43 211 9.0 18.0 0.00 0.00 0.00 75 1014.8
20260507061000 43 212 9.0 18.0 0.00 0.00 0.00 75 1014.7
20260507060500 43 214 10.0 17.0 0.00 0.00 0.00 75 1014.9
20260507060000 43 213 10.0 17.0 0.00 0.00 0.00 74 1014.9
20260507055500 43 210 8.0 17.0 0.00 0.00 0.00 74 1014.8
20260507055000 43 209 9.0 17.0 0.00 0.00 0.00 74 1014.9
20260507053500 44 212 9.0 17.0 0.00 0.00 0.00 72 1015.0
20260507053000 44 212 10.0 17.0 0.00 0.00 0.00 72 1015.1
20260507052500 44 210 10.0 18.0 0.00 0.00 0.00 72 1015.2
20260507052000 44 212 9.0 18.0 0.00 0.00 0.00 72 1015.2
20260507051500 44 216 8.0 19.0 0.00 0.00 0.00 71 1015.2
20260507050001 44 213 9.0 13.0 0.00 0.00 0.00 71 1015.4
20260507044500 44 209 8.0 16.0 0.00 0.00 0.00 70 1015.6
20260507043500 44 210 8.0 14.0 0.00 0.00 0.00 69 1015.9
20260507043000 45 215 8.0 14.0 0.00 0.00 0.00 69 1015.9
20260507042459 45 215 7.0 14.0 0.00 0.00 0.00 69 1015.9
20260507042000 45 212 8.0 15.0 0.00 0.00 0.00 68 1016.0
20260507041500 45 211 9.0 16.0 0.00 0.00 0.00 67 1016.1
20260507041000 45 211 8.0 16.0 0.00 0.00 0.00 67 1016.0
20260507040459 45 211 8.0 15.0 0.00 0.00 0.00 66 1016.1
20260507035005 46 215 8.0 15.0 0.00 0.00 0.00 63 1016.0
20260507034500 46 215 7.0 16.0 0.00 0.00 0.00 62 1016.0
20260507033500 46 211 8.0 14.0 0.00 0.00 0.00 60 1016.2
20260507033001 47 211 7.0 14.0 0.00 0.00 0.00 59 1016.3
20260507032000 47 211 6.0 11.0 0.00 0.00 0.00 58 1016.4
20260507031500 47 209 6.0 12.0 0.00 0.00 0.00 57 1016.3
20260507031000 47 211 6.0 12.0 0.00 0.00 0.00 56 1016.4
20260507030459 48 214 7.0 12.0 0.00 0.00 0.00 54 1016.4
20260507030000 48 215 7.0 12.0 0.00 0.00 0.00 53 1016.1
20260507025500 48 213 6.0 11.0 0.00 0.00 0.00 52 1016.2
20260507025000 48 213 5.0 11.0 0.00 0.00 0.00 50 1016.2
20260507024502 48 215 4.0 10.0 0.00 0.00 0.00 49 1016.3
20260507024000 48 216 4.0 10.0 0.00 0.00 0.00 48 1016.2
20260507023500 49 219 3.0 7.0 0.00 0.00 0.00 47 1016.1
20260507023000 49 217 4.0 7.0 0.00 0.00 0.00 46 1016.1
20260507022500 49 217 4.0 8.0 0.00 0.00 0.00 45 1016.1
20260507022000 50 217 5.0 8.0 0.00 0.00 0.00 44 1016.0
20260507021001 50 220 4.0 9.0 0.00 0.00 0.00 42 1016.0
20260507020500 51 220 3.0 8.0 0.00 0.00 0.00 42 1015.9
20260507020000 51 220 4.0 8.0 0.00 0.00 0.00 42 1016.0
20260507015500 52 223 4.0 8.0 0.00 0.00 0.00 41 1016.0
20260507015000 52 232 3.0 8.0 0.00 0.00 0.00 40 1016.0
20260507014500 52 229 4.0 9.0 0.00 0.00 0.00 39 1015.9
20260507013501 53 219 4.0 8.0 0.00 0.00 0.00 38 1015.9
20260507013000 54 233 4.0 8.0 0.00 0.00 0.00 37 1015.9
20260507012000 54 240 5.0 10.0 0.00 0.00 0.00 36 1016.0
20260507011500 54 243 5.0 13.0 0.00 0.00 0.00 35 1015.9
20260507011001 55 249 4.0 13.0 0.00 0.00 0.00 35 1016.0
20260507010500 55 248 3.0 9.0 0.00 0.00 0.00 34 1016.0
20260507010000 55 238 3.0 10.0 0.00 0.00 0.00 34 1016.0
20260507005503 54 249 4.0 10.0 0.00 0.00 0.00 35 1016.0
20260507005001 54 257 4.0 8.0 0.00 0.00 0.00 35 1016.0
20260507004502 54 257 3.0 9.0 0.00 0.00 0.00 34 1016.1
20260507004000 55 269 5.0 13.0 0.00 0.00 0.00 33 1016.1
20260507003500 55 271 5.0 13.0 0.00 0.00 0.00 33 1016.1
20260507003000 56 271 5.0 13.0 0.00 0.00 0.00 32 1016.2
20260507002500 56 251 6.0 14.0 0.00 0.00 0.00 32 1016.2
20260507002000 56 228 5.0 14.0 0.00 0.00 0.00 32 1016.2
20260507001500 55 244 4.0 10.0 0.00 0.00 0.00 33 1016.2
20260507001001 54 286 3.0 8.0 0.00 0.00 0.00 34 1016.3
20260507000000 54 285 4.0 10.0 0.00 0.01 0.00 34 1016.3
20260506235500 55 268 5.0 11.0 0.00 0.01 0.00 34 1016.3
20260506235000 55 258 5.0 11.0 0.00 0.01 0.00 33 1016.3
20260506234500 56 262 6.0 14.0 0.00 0.01 0.00 33 1016.6
20260506234000 56 270 5.0 14.0 0.00 0.01 0.00 32 1016.6
20260506233501 56 249 4.0 13.0 0.00 0.01 0.00 32 1016.7
20260506233000 56 238 5.0 11.0 0.00 0.02 0.00 34 1016.6
20260506232500 56 255 6.0 17.0 0.00 0.02 0.00 33 1016.7
20260506232001 56 253 6.0 17.0 0.00 0.02 0.00 34 1016.7
20260506231500 56 243 6.0 17.0 0.00 0.02 0.00 33 1016.8
20260506231002 56 242 7.0 14.0 0.00 0.02 0.00 32 1016.7
20260506230501 56 261 5.0 14.0 0.00 0.02 0.00 33 1016.7
20260506225001 55 272 6.0 13.0 0.00 0.03 0.00 31 1016.6
20260506224500 56 297 5.0 13.0 0.00 0.03 0.00 30 1016.6
20260506223500 55 267 4.0 9.0 0.00 0.03 0.00 31 1016.7
20260506223000 55 260 5.0 14.0 0.00 0.03 0.00 30 1016.7
20260506222500 55 264 7.0 14.0 0.00 0.03 0.00 29 1016.8
20260506222001 56 251 8.0 16.0 0.00 0.03 0.00 28 1016.9
20260506221500 56 260 6.0 16.0 0.00 0.03 0.00 28 1016.9
20260506221001 56 284 4.0 13.0 0.00 0.03 0.00 28 1016.9
20260506220501 56 257 4.0 10.0 0.00 0.03 0.00 29 1016.9
20260506220000 56 232 6.0 16.0 0.00 0.03 0.00 29 1017.0
20260506215500 55 235 6.0 16.0 0.00 0.03 0.00 31 1017.1
20260506215001 54 259 5.0 10.0 0.00 0.03 0.00 33 1017.3
20260506214500 54 283 4.0 9.0 0.00 0.03 0.00 34 1017.4
20260506214002 54 242 3.0 9.0 0.00 0.03 0.00 35 1017.5
20260506213500 54 223 4.0 9.0 0.00 0.03 0.00 35 1017.5
20260506213000 54 210 6.0 13.0 0.00 0.03 0.00 35 1017.6
20260506212501 55 207 7.0 13.0 0.00 0.03 0.00 34 1017.6
20260506212000 55 217 7.0 13.0 0.00 0.03 0.00 34 1017.6
20260506211500 56 225 6.0 13.0 0.00 0.03 0.00 33 1017.7
20260506211001 57 237 6.0 18.0 0.00 0.03 0.00 33 1017.8
20260506210001 56 239 7.0 13.0 0.00 0.03 0.00 33 1017.9
20260506205501 56 240 6.0 13.0 0.00 0.03 0.00 32 1018.0
20260506205001 55 248 4.0 13.0 0.00 0.03 0.00 35 1018.1
20260506204000 55 221 4.0 11.0 0.00 0.03 0.00 34 1018.3
20260506203500 56 254 4.0 9.0 0.00 0.03 0.00 34 1018.4
20260506203000 55 299 5.0 16.0 0.00 0.03 0.00 35 1018.5
20260506202501 54 274 5.0 16.0 0.00 0.03 0.00 35 1018.5
20260506202000 54 229 5.0 13.0 0.00 0.03 0.00 35 1018.6
20260506201500 54 215 6.0 15.0 0.00 0.03 0.00 33 1018.5
20260506201001 54 223 6.0 15.0 0.00 0.03 0.00 34 1018.6
20260506200500 54 267 4.0 11.0 0.00 0.03 0.00 33 1018.7
20260506200001 54 250 3.0 9.0 0.00 0.03 0.00 34 1018.6
20260506195500 55 252 4.0 12.0 0.00 0.03 0.00 35 1018.7
20260506195001 54 270 5.0 12.0 0.00 0.03 0.00 34 1018.7
20260506194000 54 249 3.0 13.0 0.00 0.03 0.00 31 1018.6
20260506193000 53 298 3.0 7.0 0.00 0.03 0.00 36 1018.8
20260506192500 53 242 5.0 13.0 0.00 0.03 0.00 35 1018.9
20260506191500 54 220 4.0 12.0 0.00 0.03 0.00 35 1018.9
20260506190500 54 199 3.0 8.0 0.00 0.03 0.00 34 1018.9
20260506190000 54 260 3.0 8.0 0.00 0.03 0.00 34 1019.1
20260506185006 53 287 4.0 13.0 0.00 0.03 0.00 35 1019.2
20260506184501 53 292 4.0 9.0 0.00 0.03 0.00 35 1019.3
20260506184001 53 273 4.0 9.0 0.00 0.03 0.00 34 1019.3
20260506183500 54 277 3.0 8.0 0.00 0.03 0.00 37 1019.4
20260506183000 53 233 3.0 9.0 0.00 0.03 0.00 38 1019.4
20260506182500 52 237 4.0 9.0 0.00 0.03 0.00 38 1019.5
20260506182001 51 265 4.0 13.0 0.00 0.03 0.00 38 1019.6
20260506180001 52 334 3.0 7.0 0.00 0.03 0.00 38 1020.0
20260506175501 52 224 3.0 7.0 0.00 0.03 0.00 40 1020.1
20260506175001 50 224 3.0 8.0 0.00 0.04 0.00 39 1020.0
20260506174501 50 254 3.0 8.0 0.00 0.04 0.00 38 1020.1
20260506173500 50 211 5.0 10.0 0.00 0.04 0.00 41 1020.0
20260506173001 50 228 4.0 7.0 0.00 0.04 0.00 42 1020.1
20260506172501 50 270 3.0 6.0 0.00 0.04 0.00 39 1020.0
20260506171501 50 344 3.0 8.0 0.00 0.04 0.00 41 1020.0
20260506171001 50 355 3.0 8.0 0.00 0.04 0.00 42 1020.0
20260506170500 51 317 2.0 8.0 0.00 0.05 0.00 40 1020.0
20260506170000 50 184 1.0 5.0 0.00 0.05 0.00 40 1020.0
20260506165500 50 355 2.0 7.0 0.00 0.05 0.00 41 1020.1
20260506165001 50 349 3.0 7.0 0.00 0.05 0.00 41 1020.1
20260506164501 50 344 2.0 6.0 0.00 0.05 0.00 42 1020.1
20260506164000 49 349 4.0 8.0 0.00 0.05 0.00 43 1020.1
20260506163501 48 345 5.0 9.0 0.00 0.05 0.00 42 1020.1
20260506163001 48 342 3.0 9.0 0.00 0.06 0.00 43 1020.1
20260506162501 48 16 2.0 6.0 0.00 0.06 0.00 45 1020.2
20260506162002 48 3 3.0 6.0 0.00 0.06 0.00 44 1020.1
20260506161501 48 358 2.0 6.0 0.00 0.06 0.00 44 1020.1
20260506160001 49 329 3.0 9.0 0.00 0.07 0.00 45 1020.0
20260506155501 49 335 3.0 9.0 0.00 0.07 0.00 45 1019.9
20260506155000 48 349 2.0 7.0 0.00 0.07 0.00 46 1019.9
20260506154501 48 356 2.0 7.0 0.00 0.07 0.00 45 1019.9
20260506154001 49 25 1.0 4.0 0.00 0.08 0.00 46 1019.8
20260506153502 48 13 2.0 6.0 0.00 0.08 0.00 44 1019.8
20260506153001 48 3 2.0 6.0 0.00 0.08 0.00 47 1019.9
20260506152501 48 15 1.0 5.0 0.00 0.08 0.00 47 1019.9
20260506152001 48 45 1.0 4.0 0.00 0.08 0.00 48 1020.0
20260506151501 48 123 1.0 6.0 0.00 0.08 0.00 48 1019.9
20260506151001 47 81 1.0 6.0 0.00 0.08 0.00 47 1019.9
20260506150501 46 342 2.0 6.0 0.00 0.08 0.00 48 1020.0
20260506145501 46 344 3.0 7.0 0.00 0.08 0.00 47 1019.9
20260506144501 46 8 2.0 6.0 0.00 0.09 0.00 47 1020.0
20260506144001 46 355 1.0 4.0 0.00 0.09 0.00 52 1020.0
20260506143501 46 146 1.0 3.0 0.00 0.09 0.00 54 1020.0
20260506143000 45 169 1.0 3.0 0.00 0.09 0.00 57 1020.0
20260506142001 44 156 0.0 3.0 0.00 0.10 0.00 61 1020.0
20260506141501 43 146 1.0 3.0 0.00 0.10 0.00 64 1020.0
20260506140000 42 152 1.0 3.0 0.00 0.10 0.00 62 1019.9
20260506135501 42 137 1.0 3.0 0.00 0.10 0.00 65 1019.8
20260506135001 42 131 1.0 3.0 0.00 0.11 0.00 67 1019.8
20260506134501 41 128 1.0 3.0 0.00 0.11 0.00 68 1019.9
20260506134002 41 123 0.0 3.0 0.00 0.11 0.00 67 1019.7
20260506133501 41 28 0.0 2.0 0.00 0.11 0.00 69 1019.6
20260506133002 41 28 0.0 2.0 0.00 0.12 0.00 69 1019.4
20260506132502 41 329 0.0 1.0 0.00 0.12 0.00 70 1019.6
20260506132001 40 328 0.0 1.0 0.00 0.12 0.00 70 1019.5
20260506130501 40 328 0.0 1.0 0.00 0.13 0.00 73 1019.5
20260506130001 40 328 0.0 1.0 0.00 0.13 0.00 73 1019.4
20260506125502 39 328 0.0 1.0 0.00 0.13 0.00 75 1019.3
20260506124501 39 328 0.0 1.0 0.00 0.13 0.00 76 1019.1
20260506124001 39 328 0.0 1.0 0.00 0.13 0.00 75 1019.0
20260506123501 39 328 0.0 1.0 0.00 0.13 0.00 75 1018.9
20260506123001 39 329 0.0 1.0 0.00 0.13 0.00 76 1018.8
20260506122502 39 329 0.0 2.0 0.00 0.13 0.00 75 1018.8
20260506121501 39 328 0.0 1.0 0.00 0.13 0.00 77 1018.8
20260506120503 38 325 0.0 2.0 0.00 0.13 0.00 76 1018.7
20260506120001 38 324 0.0 1.0 0.00 0.13 0.00 77 1018.8
20260506115501 38 324 0.0 1.0 0.00 0.13 0.00 77 1018.7
20260506114501 38 350 0.0 1.0 0.00 0.13 0.00 78 1018.6